Vorticity
8 9 9 11 15 24 31 27 25 10 36 28 19 -5 19 -16 21 57 30 41 -3 35 54 112 27 26 -12 -11 2 14 14 15 40 -8 7 20 6 13 15 -22 10 12 -2 14
9 12 18 29 30 16 9 11 22 8 26 18 7 18 -1 -8 -10 -11 -6 -4 -2 -0 -5 45 -5 -2 89 58 11 8 5 28 -0 30 45 33 15 11 10 5 2 24 -0 21
18 31 24 10 11 12 14 19 25 15 31 8 -4 1 24 20 28 48 19 13 30 16 26 20 -25 -7 20 3 56 14 15 25 -13 4 19 16 10 25 17 0 4 15 14 19
25 13 10 13 14 14 16 20 3 12 -4 26 21 22 21 14 15 11 25 15 -2 2 36 23 25 14 -13 10 15 36 44 36 28 40 38 19 29 35 32 26 15 -5 19 14
10 9 13 15 14 13 16 16 23 22 15 12 11 12 10 9 11 20 8 7 15 28 27 28 27 31 21 8 15 15 8 26 -9 -0 16 24 1 11 3 0 12 16 17 7
13 13 13 12 12 14 10 13 16 17 7 12 16 11 10 10 16 26 13 15 15 22 30 -15 -20 -7 4 28 27 26 19 12 -0 22 -19 -14 -42 14 9 11 7 -3 0 20
12 11 10 12 11 15 15 13 15 13 12 13 13 13 15 12 29 15 12 11 20 14 -1 4 14 26 -20 -15 20 34 24 8 11 23 1 11 12 7 6 10 9 12 8 5
10 11 11 11 14 15 10 8 12 14 4 12 13 15 18 19 23 20 8 2 18 16 25 20 21 8 24 0 -3 28 27 14 7 11 18 4 3 5 8 14 8 6 7 6
10 10 13 13 13 16 9 15 10 11 23 8 11 12 10 13 25 28 11 27 9 26 19 20 5 11 7 -10 13 -6 39 37 28 -2 10 15 9 5 15 6 3 4 4 9
10 12 12 12 12 15 11 17 4 12 20 8 9 12 11 10 15 24 15 20 27 28 11 21 14 3 29 8 11 -14 -5 -22 8 23 19 4 12 11 8 12 9 10 10 9
9 11 9 11 10 15 11 13 11 5 2 10 9 8 6 8 8 14 29 -5 21 21 21 19 13 9 19 -11 16 7 30 13 9 5 13 5 14 3 11 12 10 9 9 8
8 8 10 8 9 11 10 11 15 15 14 5 8 7 9 8 9 9 10 17 19 24 35 23 14 13 13 29 -3 22 -3 23 32 32 27 10 8 8 9 8 7 7 7 6
6 8 8 8 8 10 10 11 8 3 36 -8 4 6 9 8 7 9 8 12 16 17 10 6 16 19 22 27 2 24 -7 6 22 9 14 6 8 8 7 7 7 7 7 7
6 6 9 9 6 7 13 11 10 19 -13 7 4 4 5 7 10 11 9 11 10 13 14 11 16 15 13 -1 8 3 16 13 7 10 7 9 6 8 7 7 7 7 7 6
10 5 4 8 13 7 1 14 13 13 17 1 2 9 3 2 4 8 18 9 12 21 19 9 -0 -10 -19 0 3 -1 10 9 12 -2 10 9 7 8 8 8 8 8 8 8
3 9 12 9 11 19 10 -4 11 25 17 15 18 -16 2 17 -2 -4 -2 12 18 18 15 2 -10 15 33 -5 -21 10 10 10 10 11 11 10 8 8 7 8 7 8 9 7
10 7 4 13 2 19 15 7 4 34 11 17 11 12 18 4 24 7 1 6 3 -2 13 13 5 22 5 -17 1 11 11 11 9 9 10 11 12 10 9 9 8 9 8 7
13 16 12 24 3 11 18 19 -2 -9 23 26 -24 6 14 11 33 27 6 -5 -10 4 5 -13 10 6 24 -17 17 11 11 10 10 9 8 8 9 10 11 10 9 10 10 8
12 17 14 14 14 8 11 19 14 2 -4 38 -8 22 11 11 23 13 20 9 12 -12 13 6 -10 -8 -20 -17 32 10 12 11 9 9 11 10 9 9 8 9 9 10 12 11
13 15 22 6 17 1 3 19 19 -6 1 -14 15 17 17 18 31 20 24 8 7 12 -16 36 6 -12 -25 -28 39 14 10 11 13 13 8 10 10 12 11 11 10 8 9 11
10 12 17 5 26 -5 9 14 50 -6 15 -25 14 17 12 10 24 16 17 9 8 13 -14 38 9 -2 -35 15 20 29 13 10 8 8 14 11 9 9 11 12 10 10 10 10
12 11 32 -0 17 1 30 3 -4 12 -19 15 16 16 12 2 36 19 8 12 15 16 16 14 16 -50 2 20 16 17 20 15 13 12 11 12 9 11 11 12 12 11 10 10
13 19 21 11 -13 22 -14 -22 -12 6 17 20 20 18 13 10 14 11 19 5 4 25 12 -3 -40 4 19 20 25 21 16 15 18 20 16 11 11 9 8 9 9 8 11 10
11 2 12 12 18 -4 10 12 11 5 20 5 23 15 11 20 9 20 18 -3 27 6 -5 -21 9 16 20 18 16 15 17 15 14 12 14 14 13 11 9 9 12 12 10 10
19 11 10 19 9 6 6 10 24 10 15 36 2 22 8 13 13 14 5 15 10 -9 -37 13 15 19 21 21 17 15 14 14 14 14 13 12 12 14 16 15 11 12 11 10
23 38 10 3 4 1 2 1 16 14 9 39 22 6 10 6 9 8 -0 14 6 -35 15 16 12 12 9 10 11 12 12 12 13 14 14 14 14 14 13 14 15 15 15 16
23 1 2 -2 -4 -4 2 3 8 13 21 36 35 -6 21 13 6 12 1 -11 11 14 16 15 10 10 10 9 10 9 10 10 11 11 12 12 13 13 14 16 17 18 17 17
Height
3058 3051 3043 3035 3026 3018 3012 3005 3001 2997 2993 2992 2987 2985 2983 2977 2967 2967 2962 2955 2947 2943 2940 2931 2928 2922 2922 2929 2928 2926 2927 2924 2923 2924 2924 2927 2929 2932 2934 2935 2935 2936 2933 2950
3049 3041 3035 3028 3018 3011 3006 2999 2995 2989 2985 2985 2982 2977 2974 2969 2964 2960 2954 2951 2947 2942 2939 2932 2927 2918 2915 2913 2912 2914 2916 2914 2916 2914 2919 2918 2919 2923 2925 2927 2930 2929 2929 2946
3043 3036 3030 3024 3017 3008 3003 2996 2991 2985 2981 2980 2977 2972 2966 2959 2958 2955 2949 2944 2940 2935 2930 2930 2925 2919 2912 2906 2900 2900 2904 2905 2905 2904 2904 2909 2912 2915 2918 2921 2925 2926 2931 2937
3038 3033 3027 3022 3014 3008 3000 2993 2988 2982 2980 2975 2972 2968 2963 2956 2950 2948 2941 2940 2935 2930 2923 2918 2917 2916 2909 2909 2902 2899 2897 2895 2898 2901 2901 2904 2907 2911 2914 2917 2919 2924 2932 2935
3036 3031 3024 3021 3013 3006 3000 2993 2990 2982 2978 2974 2971 2965 2960 2954 2950 2944 2939 2936 2931 2928 2925 2921 2915 2908 2910 2907 2903 2900 2898 2898 2899 2908 2914 2905 2911 2915 2918 2922 2923 2924 2931 2938
3035 3030 3024 3019 3010 3004 2999 2992 2986 2981 2977 2972 2967 2962 2956 2952 2946 2942 2937 2934 2931 2928 2925 2923 2920 2917 2914 2908 2902 2900 2900 2898 2899 2910 2912 2913 2917 2926 2928 2928 2931 2931 2932 2937
3035 3030 3024 3018 3010 3004 3000 2993 2988 2983 2977 2973 2968 2963 2957 2951 2945 2942 2938 2934 2931 2929 2925 2923 2920 2918 2917 2915 2906 2901 2901 2899 2898 2908 2912 2924 2937 2934 2932 2934 2936 2937 2934 2939
3035 3030 3022 3018 3012 3004 2999 2994 2989 2984 2979 2975 2972 2967 2961 2954 2945 2941 2937 2935 2931 2927 2924 2922 2920 2917 2917 2916 2912 2907 2903 2900 2900 2910 2922 2935 2937 2935 2935 2937 2942 2940 2940 2940
3036 3030 3025 3018 3014 3008 3001 2996 2990 2987 2981 2978 2974 2968 2962 2956 2949 2944 2940 2935 2931 2928 2926 2924 2924 2923 2924 2919 2916 2914 2908 2899 2901 2915 2920 2933 2939 2937 2937 2938 2943 2941 2940 2941
3037 3031 3025 3018 3016 3012 3004 2998 2992 2989 2983 2981 2977 2970 2966 2960 2954 2947 2943 2938 2934 2931 2929 2927 2930 2932 2930 2930 2927 2919 2911 2912 2915 2920 2927 2938 2939 2939 2938 2937 2947 2941 2940 2940
3036 3032 3027 3021 3018 3014 3009 3000 2995 2992 2987 2985 2980 2976 2970 2965 2959 2954 2950 2943 2939 2935 2933 2935 2937 2938 2938 2938 2936 2932 2928 2926 2926 2928 2933 2942 2941 2941 2940 2939 2939 2940 2940 2940
3039 3033 3030 3026 3020 3015 3009 3004 2999 2995 2992 2988 2985 2979 2976 2972 2966 2961 2955 2952 2947 2943 2941 2943 2944 2945 2945 2942 2943 2941 2940 2941 2940 2940 2945 2944 2943 2941 2939 2939 2940 2940 2939 2937
3041 3037 3031 3026 3021 3018 3013 3006 3002 2999 2995 2992 2989 2984 2981 2976 2971 2968 2964 2959 2956 2953 2951 2949 2950 2951 2951 2949 2950 2948 2947 2946 2946 2946 2947 2945 2943 2942 2940 2939 2939 2938 2936 2935
3044 3038 3033 3028 3024 3020 3014 3010 3004 3000 2997 2994 2992 2988 2985 2980 2977 2973 2969 2967 2964 2962 2959 2956 2955 2954 2957 2956 2957 2953 2953 2952 2950 2949 2948 2946 2944 2943 2941 2940 2938 2936 2934 2932
3044 3039 3034 3029 3026 3021 3016 3011 3006 3002 3001 2997 2994 2991 2988 2984 2981 2977 2975 2973 2971 2968 2964 2962 2960 2960 2961 2960 2959 2958 2957 2955 2953 2951 2949 2947 2945 2942 2940 2938 2935 2932 2930 2928
3044 3040 3036 3032 3026 3021 3017 3012 3008 3003 3000 2998 2996 2994 2991 2988 2986 2984 2982 2979 2976 2973 2969 2966 2966 2965 2965 2966 2964 2963 2960 2957 2954 2951 2949 2946 2943 2940 2937 2935 2932 2929 2926 2923
3043 3040 3036 3031 3027 3021 3018 3015 3012 3006 3003 3000 2998 2996 2994 2990 2987 2986 2985 2982 2979 2977 2973 2971 2970 2969 2967 2967 2967 2964 2961 2957 2954 2950 2947 2944 2941 2937 2933 2931 2927 2924 2920 2916
3042 3038 3036 3031 3028 3024 3020 3016 3013 3009 3005 3002 3001 2998 2993 2990 2986 2985 2984 2983 2980 2978 2976 2975 2973 2971 2970 2972 2968 2964 2959 2956 2952 2948 2944 2940 2937 2933 2930 2926 2922 2919 2916 2912
3042 3038 3035 3033 3030 3026 3021 3017 3013 3011 3012 3007 3004 2998 2993 2990 2986 2984 2983 2982 2981 2980 2978 2976 2975 2972 2972 2972 2965 2960 2956 2951 2947 2944 2940 2936 2932 2929 2925 2921 2917 2913 2910 2906
3041 3038 3034 3031 3029 3027 3023 3018 3016 3014 3011 3006 3003 2999 2994 2991 2985 2983 2982 2981 2980 2979 2980 2976 2975 2973 2972 2968 2964 2958 2952 2948 2943 2939 2936 2931 2928 2924 2920 2916 2912 2907 2904 2900
3041 3038 3035 3034 3030 3028 3025 3024 3019 3017 3013 3008 3004 3000 2995 2991 2987 2984 2983 2982 2981 2980 2981 2977 2975 2973 2970 2965 2958 2953 2948 2943 2939 2934 2930 2926 2921 2916 2913 2910 2905 2900 2896 2892
3041 3039 3036 3035 3032 3032 3033 3029 3025 3021 3018 3013 3006 3001 2997 2993 2988 2986 2985 2984 2983 2982 2980 2978 2975 2973 2967 2958 2952 2947 2942 2937 2933 2928 2923 2919 2915 2911 2906 2902 2898 2893 2888 2884
3042 3040 3038 3039 3041 3041 3038 3036 3032 3028 3022 3015 3008 3003 2999 2994 2990 2988 2987 2987 2986 2984 2981 2980 2976 2970 2961 2953 2947 2942 2937 2932 2927 2922 2917 2912 2908 2904 2898 2894 2889 2884 2880 2875
3044 3045 3046 3049 3051 3051 3047 3042 3037 3031 3023 3018 3011 3006 3002 2998 2995 2992 2991 2991 2987 2985 2983 2981 2973 2964 2956 2949 2943 2937 2931 2926 2921 2916 2911 2905 2900 2896 2891 2885 2879 2874 2870 2866
3047 3051 3056 3058 3057 3053 3049 3044 3038 3031 3025 3018 3013 3007 3005 3001 2999 2999 2998 2995 2993 2991 2987 2978 2969 2961 2953 2946 2939 2933 2927 2922 2916 2910 2905 2899 2893 2888 2883 2877 2871 2865 2860 2855
3054 3057 3061 3060 3058 3054 3050 3044 3038 3032 3025 3018 3013 3010 3008 3006 3006 3005 3002 3000 2996 2990 2982 2975 2967 2960 2953 2946 2939 2932 2925 2918 2912 2905 2899 2892 2886 2880 2874 2869 2862 2856 2850 2844
3061 3062 3061 3059 3057 3054 3049 3045 3039 3033 3026 3017 3015 3016 3013 3012 3011 3007 3004 3001 2994 2987 2981 2974 2966 2958 2950 2944 2937 2930 2922 2915 2908 2901 2895 2887 2880 2874 2867 2860 2855 2849 2842 2835